Weather History for KSEP - November, 2011

Change the Weather History Date:

Sunday, November 20, 2011

  Actual Average Record
Temperature  
Mean Temperature 60 °F -  
Max Temperature 73 °F 64 °F 81 °F (1982)
Min Temperature 46 °F 39 °F 20 °F (1921)
Degree Days  
Heating Degree Days 6    
Growing Degree Days 10 (Base 50)    
Moisture  
Dew Point 54 °F    
Average Humidity 80    
Maximum Humidity 94    
Minimum Humidity 67    
Precipitation  
Precipitation 0.00 in - - ()
Sea Level Pressure  
Sea Level Pressure 30.07 in    
Wind  
Wind Speed 5 mph (NNW)    
Max Wind Speed 16 mph    
Max Gust Speed 16 mph    
Visibility 8 miles    
Events      
Averages and records for this station are not official NWS values.
T = Trace of Precipitation, MM = Missing Value Source: NWS Daily Summary

Daily Weather History Graph

Daily Weather History Graph

Search for Another Location

Airport or City:

Trip Planner

Search our weather history database for the weather conditions in past years. The results will help you decide how hot, cold, wet, or windy it might be!

Date:

Astronomy

Nov. 20, 2011 Rise Set
Actual Time 7:06 AM CST 5:30 PM CST
Civil Twilight 6:39 AM CST 5:56 PM CST
Nautical Twilight 6:10 AM CST 6:26 PM CST
Astronomical Twilight 5:40 AM CST 6:55 PM CST
Moon 1:52 AM CST (11/20) 2:05 PM CST (11/20)
Length of Visible Light 11h 16m
Length of Day
10h 24m
Waning Crescent, 27% of the Moon is Illuminated
Nov 20
Waning Crescent
Nov 25
New
Dec 2
First Quarter
Dec 10
Full
Dec 17
Last Quarter

Hourly Weather History & Observations

Time (CST) Temp. Windchill Dew Point Humidity Pressure Visibility Wind Dir Wind Speed Gust Speed Precip Events Conditions
12:15 AM 60.8 °F - 59.0 °F 94% 29.97 in 10.0 mi SSE 3.5 mph - N/A   Clear
12:35 AM 60.8 °F - 57.2 °F 88% 29.97 in 7.0 mi SSE 3.5 mph - N/A   Clear
12:55 AM 60.8 °F - 59.0 °F 94% 29.97 in 7.0 mi SSE 3.5 mph - N/A   Clear
1:15 AM 60.8 °F - 59.0 °F 94% 29.97 in 10.0 mi South 3.5 mph - N/A   Clear
1:35 AM 62.6 °F - 59.0 °F 88% 29.97 in 10.0 mi Calm Calm - N/A   Scattered Clouds
1:55 AM 62.6 °F - 59.0 °F 88% 29.97 in 7.0 mi Calm Calm - N/A   Scattered Clouds
2:15 AM 60.8 °F - 59.0 °F 94% 29.97 in 7.0 mi Calm Calm - N/A   Clear
2:35 AM 60.8 °F - 59.0 °F 94% 29.97 in 5.0 mi SSW 3.5 mph - N/A   Scattered Clouds
2:55 AM 60.8 °F - 59.0 °F 94% 29.97 in 4.0 mi South 3.5 mph - N/A   Clear
3:15 AM 62.6 °F - 60.8 °F 94% 29.98 in 4.0 mi South 3.5 mph - N/A   Scattered Clouds
3:35 AM 64.4 °F - 62.6 °F 94% 29.98 in 5.0 mi South 5.8 mph - N/A   Mostly Cloudy
3:55 AM 64.4 °F - 62.6 °F 94% 29.98 in 7.0 mi South 4.6 mph - N/A   Scattered Clouds
4:15 AM 66.2 °F - 64.4 °F 94% 29.98 in 7.0 mi South 4.6 mph - N/A   Scattered Clouds
4:35 AM 68.0 °F - 64.4 °F 88% 29.99 in 7.0 mi South 3.5 mph - N/A   Overcast
4:55 AM 68.0 °F - 64.4 °F 88% 29.99 in 7.0 mi Calm Calm - N/A   Overcast
5:15 AM 68.0 °F - 64.4 °F 88% 29.99 in 7.0 mi South 4.6 mph - N/A   Mostly Cloudy
5:35 AM 68.0 °F - 64.4 °F 88% 30.00 in 7.0 mi South 3.5 mph - N/A   Mostly Cloudy
5:55 AM 68.0 °F - 64.4 °F 88% 30.00 in 7.0 mi South 3.5 mph - N/A   Mostly Cloudy
6:15 AM 68.0 °F - 64.4 °F 88% 30.02 in 7.0 mi Calm Calm - N/A   Mostly Cloudy
6:35 AM 68.0 °F - 64.4 °F 88% 30.03 in 7.0 mi Calm Calm - N/A   Mostly Cloudy
6:55 AM 68.0 °F - 64.4 °F 88% 30.04 in 7.0 mi Calm Calm - N/A   Scattered Clouds
7:15 AM 68.0 °F - 64.4 °F 88% 30.06 in 5.0 mi Calm Calm - N/A   Mostly Cloudy
7:35 AM 68.0 °F - 64.4 °F 88% 30.06 in 5.0 mi Calm Calm - N/A   Mostly Cloudy
7:55 AM 68.0 °F - 64.4 °F 88% 30.07 in 5.0 mi Calm Calm - N/A   Mostly Cloudy
8:15 AM 68.0 °F - 64.4 °F 88% 30.08 in 7.0 mi Calm Calm - N/A   Scattered Clouds
8:35 AM 69.8 °F - 64.4 °F 83% 30.09 in 7.0 mi Calm Calm - N/A   Scattered Clouds
8:55 AM 69.8 °F - 64.4 °F 83% 30.10 in 10.0 mi Calm Calm - N/A   Mostly Cloudy
9:15 AM 69.8 °F - 64.4 °F 83% 30.11 in 10.0 mi Calm Calm - N/A   Mostly Cloudy
9:35 AM 71.6 °F - 64.4 °F 78% 30.12 in 10.0 mi Calm Calm - N/A   Scattered Clouds
9:55 AM 71.6 °F - 64.4 °F 78% 30.12 in 10.0 mi South 3.5 mph - N/A   Scattered Clouds
10:15 AM 73.4 °F - 64.4 °F 73% 30.12 in 10.0 mi South 5.8 mph - N/A   Scattered Clouds
10:35 AM 68.0 °F - 59.0 °F 73% 30.13 in 10.0 mi NNW 11.5 mph - N/A   Scattered Clouds
10:55 AM 64.4 °F - 55.4 °F 73% 30.12 in 10.0 mi NNW 10.4 mph - N/A   Scattered Clouds
11:15 AM 62.6 °F - 51.8 °F 68% 30.12 in 10.0 mi North 10.4 mph - N/A   Clear
11:35 AM 60.8 °F - 50.0 °F 68% 30.12 in 10.0 mi NNW 10.4 mph - N/A   Clear
11:55 AM 60.8 °F - 50.0 °F 68% 30.12 in 10.0 mi North 8.1 mph - N/A   Clear
12:15 PM 60.8 °F - 50.0 °F 68% 30.11 in 10.0 mi North 11.5 mph - N/A   Scattered Clouds
12:35 PM 59.0 °F - 48.2 °F 67% 30.11 in 10.0 mi North 11.5 mph - N/A   Scattered Clouds
12:55 PM 57.2 °F - 46.4 °F 67% 30.10 in 10.0 mi North 10.4 mph - N/A   Mostly Cloudy
1:15 PM 55.4 °F - 44.6 °F 67% 30.09 in 10.0 mi North 10.4 mph - N/A   Scattered Clouds
1:35 PM 55.4 °F - 44.6 °F 67% 30.09 in 10.0 mi NNW 10.4 mph - N/A   Scattered Clouds
1:55 PM 55.4 °F - 44.6 °F 67% 30.09 in 10.0 mi North 10.4 mph - N/A   Scattered Clouds
2:15 PM 55.4 °F - 44.6 °F 67% 30.06 in 10.0 mi North 11.5 mph 16.1 mph N/A   Scattered Clouds
3:15 PM 55.4 °F - 44.6 °F 67% 30.09 in 10.0 mi North 10.4 mph - N/A   Mostly Cloudy
3:35 PM 55.4 °F - 44.6 °F 67% 30.09 in 10.0 mi North 9.2 mph - N/A   Mostly Cloudy
3:55 PM 55.4 °F - 44.6 °F 67% 30.09 in 10.0 mi North 12.7 mph 16.1 mph N/A   Mostly Cloudy
4:15 PM 53.6 °F - 44.6 °F 72% 30.10 in 10.0 mi North 16.1 mph - N/A   Mostly Cloudy
4:35 PM 53.6 °F - 42.8 °F 67% 30.11 in 10.0 mi North 10.4 mph - N/A   Overcast
4:55 PM 53.6 °F - 42.8 °F 67% 30.11 in 10.0 mi North 10.4 mph - N/A   Mostly Cloudy
5:35 PM 51.8 °F - 41.0 °F 67% 30.11 in 10.0 mi North 9.2 mph - N/A   Scattered Clouds
5:55 PM 50.0 °F - 41.0 °F 71% 30.11 in 10.0 mi North 8.1 mph - N/A   Clear
6:15 PM 50.0 °F - 41.0 °F 71% 30.11 in 10.0 mi North 8.1 mph - N/A   Clear
6:35 PM 50.0 °F - 41.0 °F 71% 30.12 in 10.0 mi North 9.2 mph - N/A   Clear
6:55 PM 48.2 °F - 41.0 °F 76% 30.13 in 10.0 mi North 9.2 mph - N/A   Mostly Cloudy
7:15 PM 48.2 °F - 41.0 °F 76% 30.14 in 7.0 mi North 10.4 mph - N/A   Overcast
7:35 PM 46.4 °F 41.1 °F 41.0 °F 81% 30.14 in 10.0 mi NNW 11.5 mph - N/A   Overcast
7:55 PM 46.4 °F 41.9 °F 41.0 °F 81% 30.14 in 7.0 mi North 9.2 mph - N/A   Overcast
8:15 PM 46.4 °F 41.1 °F 41.0 °F 81% 30.15 in 7.0 mi North 11.5 mph - N/A   Overcast
8:35 PM 46.4 °F 41.1 °F 41.0 °F 81% 30.15 in 7.0 mi North 11.5 mph - N/A   Overcast
8:55 PM 46.4 °F 42.9 °F 41.0 °F 81% 30.16 in 7.0 mi North 6.9 mph - N/A   Overcast
9:15 PM 44.6 °F 40.2 °F 41.0 °F 87% 30.16 in 7.0 mi NNW 8.1 mph - N/A   Overcast
9:35 PM 44.6 °F 40.7 °F 41.0 °F 87% 30.15 in 7.0 mi North 6.9 mph - N/A   Overcast
9:55 PM 44.6 °F 41.4 °F 41.0 °F 87% 30.16 in 5.0 mi NW 5.8 mph - N/A   Overcast
10:15 PM 44.6 °F 40.7 °F 41.0 °F 87% 30.15 in 5.0 mi North 6.9 mph - N/A   Mostly Cloudy
10:35 PM 44.6 °F 40.2 °F 41.0 °F 87% 30.17 in 5.0 mi NNW 8.1 mph - N/A   Overcast
10:55 PM 44.6 °F 40.7 °F 41.0 °F 87% 30.17 in 5.0 mi NNW 6.9 mph - N/A   Overcast
11:15 PM 44.6 °F 40.7 °F 41.0 °F 87% 30.17 in 5.0 mi North 6.9 mph - N/A   Overcast
11:35 PM 44.6 °F 41.4 °F 41.0 °F 87% 30.17 in 5.0 mi North 5.8 mph - N/A   Overcast
11:55 PM 44.6 °F 40.2 °F 41.0 °F 87% 30.17 in 5.0 mi NNW 8.1 mph - N/A   Overcast